Tracking 18647 objects as of 29-May-2017
HD Live streaming from Space Station
objects crossing your sky now

HELIOS-2A

Track HELIOS-2A now!
10-day predictions
HELIOS-2A is classified as:


NORAD ID: 28492
Int'l Code: 2004-049A
Perigee: 686.6 km
Apogee: 689.4 km
Inclination: 98.1 °
Period: 98.4 minutes
Semi major axis: 7058 km
RCS: Unknown
Launch date: December 18, 2004
Source: France (FR)
Launch site: FRENCH GUIANA (FRGUI)

Optical reconnaissance; independent military intelligence capability for the EU.
Your satellite tracking list
Your tracking list is empty





NASA's NSSDC Master Catalog

Two Line Element Set (TLE):
1 28492U 04049A   17147.00374273 0.00000140  00000-0  26857-4 0    08
2 28492  98.1485  84.0874 0002000  78.9910 281.0089 14.63823304    01
Source of the keplerian elements: McCants